Location: Unspecified
(0.0000°N, 0.0000°E)
Time: 02:27:11
(UTC+00:00)

deb Midas V - Visible Passes

Search period start: 15 October 2024 00:00
Search period end: 25 October 2024 00:00
Orbit: 2777 x 3383 km, 86.7° (Epoch: 14 October)

Date Brightness Start Highest point End Pass type
(mag) Time Alt. Az. Time Alt. Az. Time Alt. Az.
16 Oct ? 00:13:00 10° S 00:14:37 15° S 00:14:37 15° S visible
16 Oct ? 23:07:06 10° SSE 23:08:25 14° SSE 23:08:25 14° SSE visible
18 Oct ? 00:33:30 10° SSW 00:34:53 14° SSW 00:34:53 14° SSW visible
18 Oct ? 23:26:31 10° S 23:28:42 17° S 23:28:42 17° S visible
19 Oct ? 22:21:54 10° SSE 22:22:32 12° SSE 22:22:32 12° SSE visible
20 Oct ? 00:54:36 10° SSW 00:55:11 11° SSW 00:55:11 11° SSW visible
20 Oct ? 23:46:26 10° S 23:49:01 18° S 23:49:01 18° S visible
21 Oct ? 22:40:40 10° SSE 22:42:52 16° SSE 22:42:52 16° SSE visible
23 Oct ? 00:06:51 10° SSW 00:09:23 17° SSW 00:09:23 17° SSW visible
23 Oct ? 23:00:01 10° S 23:03:16 20° S 23:03:16 20° S visible
24 Oct ? 21:55:35 10° SSE 21:57:09 14° SSE 21:57:09 14° SSE visible
